EW0610 Weather Reports


Display with metric or nautical units.
time (UTC)temp
F
wind
direction
speed
MPH
gust
MPH
rain 1hr
in
rain 24hr
in
rain mn
in
humidity
%
barometer
mb
20260506003527 73 326 3.0 12.0 0.00 0.00 0.00 65 1005.2
20260506003035 73 18 4.0 12.0 0.00 0.00 0.00 64 1005.1
20260506002539 73 355 1.0 9.0 0.00 0.00 0.00 64 1005.2
20260506002024 74 341 2.0 10.0 0.00 0.00 0.00 64 1005.3
20260506001532 74 345 3.0 12.0 0.00 0.00 0.00 64 1005.0
20260506001024 75 333 5.0 12.0 0.00 0.00 0.00 63 1004.9
20260506000525 75 341 1.0 10.0 0.00 0.00 0.00 62 1004.9
20260506000033 76 10 2.0 10.0 0.00 0.00 0.00 61 1004.9
20260505235539 76 8 2.0 9.0 0.00 0.00 0.00 61 1005.0
20260505235030 77 323 1.0 11.0 0.00 0.00 0.00 61 1004.9
20260505234537 77 331 1.0 11.0 0.00 0.00 0.00 60 1004.8
20260505234042 78 331 3.0 10.0 0.00 0.00 0.00 59 1004.8
20260505233528 78 349 4.0 12.0 0.00 0.00 0.00 59 1004.7
20260505233032 78 346 1.0 12.0 0.00 0.00 0.00 59 1004.6
20260505232524 78 306 1.0 12.0 0.00 0.00 0.00 59 1004.6
20260505232033 79 332 2.0 12.0 0.00 0.00 0.00 58 1004.8
20260505231537 80 315 5.0 10.0 0.00 0.00 0.00 58 1004.7
20260505231048 80 316 2.0 9.0 0.00 0.00 0.00 57 1004.6
20260505230600 80 304 4.0 7.0 0.00 0.00 0.00 56 1004.5
20260505230025 81 347 3.0 14.0 0.00 0.00 0.00 56 1004.5
20260505225524 81 308 2.0 14.0 0.00 0.00 0.00 56 1004.4
20260505225100 82 303 3.0 10.0 0.00 0.00 0.00 55 1004.3
20260505224524 82 10 1.0 7.0 0.00 0.00 0.00 55 1004.1
20260505224058 83 340 2.0 7.0 0.00 0.00 0.00 56 1003.9
20260505223525 83 293 1.0 7.0 0.00 0.00 0.00 56 1003.9
20260505223033 83 293 3.0 10.0 0.00 0.00 0.00 55 1004.0
20260505222542 84 303 2.0 10.0 0.00 0.00 0.00 55 1004.0
20260505222027 85 337 4.0 10.0 0.00 0.00 0.00 53 1003.9
20260505221531 85 339 2.0 11.0 0.00 0.00 0.00 52 1003.6
20260505221039 85 351 3.0 11.0 0.00 0.00 0.00 51 1003.6
20260505220523 85 295 1.0 7.0 0.00 0.00 0.00 49 1003.7
20260505220032 85 342 2.0 10.0 0.00 0.00 0.00 48 1003.5
20260505215544 86 326 3.0 10.0 0.00 0.00 0.00 47 1003.5
20260505215053 86 306 0.0 11.0 0.00 0.00 0.00 47 1003.5
20260505214553 86 320 0.0 11.0 0.00 0.00 0.00 46 1003.7
20260505214041 87 305 3.0 9.0 0.00 0.00 0.00 46 1003.8
20260505213524 87 307 0.0 11.0 0.00 0.00 0.00 46 1003.7
20260505213032 88 307 4.0 11.0 0.00 0.00 0.00 47 1003.6
20260505212540 87 314 1.0 11.0 0.00 0.00 0.00 46 1003.6
20260505212046 88 322 2.0 13.0 0.00 0.00 0.00 46 1003.5
20260505211528 89 335 4.0 13.0 0.00 0.00 0.00 47 1003.6
20260505211034 90 304 4.0 14.0 0.00 0.00 0.00 47 1003.6
20260505210524 91 260 10.0 16.0 0.00 0.00 0.00 48 1003.5
20260505210033 91 239 6.0 20.0 0.00 0.00 0.00 49 1003.7
20260505205541 91 254 12.0 20.0 0.00 0.00 0.00 46 1003.5
20260505205024 91 285 6.0 15.0 0.00 0.00 0.00 48 1003.8
20260505204534 91 265 4.0 15.0 0.00 0.00 0.00 49 1003.9
20260505204024 91 268 10.0 15.0 0.00 0.00 0.00 48 1003.6
20260505203529 90 259 10.0 17.0 0.00 0.00 0.00 48 1003.7
20260505203034 90 256 12.0 17.0 0.00 0.00 0.00 49 1003.8
20260505202538 90 249 10.0 16.0 0.00 0.00 0.00 50 1003.8
20260505202025 90 249 7.0 16.0 0.00 0.00 0.00 48 1003.8
20260505201537 90 247 8.0 15.0 0.00 0.00 0.00 50 1004.0
20260505201021 90 251 7.0 16.0 0.00 0.00 0.00 51 1004.1
20260505200526 90 268 10.0 20.0 0.00 0.00 0.00 51 1004.1
20260505200032 89 278 9.0 20.0 0.00 0.00 0.00 52 1004.0
20260505195521 89 251 14.0 19.0 0.00 0.00 0.00 51 1004.2
20260505195028 89 264 12.0 19.0 0.00 0.00 0.00 51 1004.1
20260505194532 89 245 12.0 19.0 0.00 0.00 0.00 54 1004.1
20260505194041 89 224 7.0 13.0 0.00 0.00 0.00 52 1004.1
20260505193542 88 264 1.0 14.0 0.00 0.00 0.00 56 1004.2
20260505193048 88 257 10.0 17.0 0.00 0.00 0.00 54 1004.2
20260505192533 88 263 4.0 17.0 0.00 0.00 0.00 57 1004.3
20260505192036 87 231 7.0 16.0 0.00 0.00 0.00 55 1004.2
20260505191521 87 195 4.0 16.0 0.00 0.00 0.00 57 1004.1
20260505191031 87 215 8.0 16.0 0.00 0.00 0.00 57 1004.1
20260505190523 86 223 7.0 15.0 0.00 0.00 0.00 58 1004.2
20260505190030 86 196 7.0 16.0 0.00 0.00 0.00 57 1004.1
20260505185532 85 227 12.0 18.0 0.00 0.00 0.00 58 1004.1
20260505185039 85 228 8.0 19.0 0.00 0.00 0.00 58 1004.1
20260505184545 86 227 11.0 19.0 0.00 0.00 0.00 58 1004.2
20260505184047 85 266 8.0 19.0 0.00 0.00 0.00 61 1004.1
20260505183552 84 217 10.0 19.0 0.00 0.00 0.00 60 1004.3
20260505183037 84 259 11.0 19.0 0.00 0.00 0.00 60 1004.3
20260505182521 84 205 13.0 18.0 0.00 0.00 0.00 60 1004.3
20260505182027 84 228 12.0 21.0 0.00 0.00 0.00 61 1004.3
20260505181536 84 254 12.0 21.0 0.00 0.00 0.00 61 1004.2
20260505181041 84 218 10.0 20.0 0.00 0.00 0.00 61 1004.2
20260505180533 84 228 12.0 20.0 0.00 0.00 0.00 62 1004.4
20260505180037 84 232 6.0 14.0 0.00 0.00 0.00 62 1004.4
20260505175525 84 227 4.0 15.0 0.00 0.00 0.00 62 1004.4
20260505175034 84 205 9.0 15.0 0.00 0.00 0.00 62 1004.4
20260505174526 84 231 8.0 17.0 0.00 0.00 0.00 62 1004.2
20260505174032 84 224 8.0 20.0 0.00 0.00 0.00 62 1004.3
20260505173537 83 205 10.0 18.0 0.00 0.00 0.00 63 1004.3
20260505173039 83 224 10.0 17.0 0.00 0.00 0.00 64 1004.2
20260505172545 83 211 11.0 17.0 0.00 0.00 0.00 64 1004.3
20260505172033 83 218 4.0 16.0 0.00 0.00 0.00 64 1004.3
20260505171541 83 224 9.0 17.0 0.00 0.00 0.00 64 1004.4
20260505171044 82 247 11.0 17.0 0.00 0.00 0.00 64 1004.4
20260505170525 82 245 4.0 16.0 0.00 0.00 0.00 65 1004.3
20260505170030 82 179 6.0 17.0 0.00 0.00 0.00 65 1004.4
20260505165531 82 239 10.0 17.0 0.00 0.00 0.00 65 1004.5
20260505165040 81 222 6.0 15.0 0.00 0.00 0.00 67 1004.5
20260505164525 80 217 5.0 15.0 0.00 0.00 0.00 68 1004.4
20260505164027 80 153 7.0 15.0 0.00 0.00 0.00 68 1004.4
20260505163537 80 202 4.0 20.0 0.00 0.00 0.00 69 1004.5
20260505163023 80 238 5.0 20.0 0.00 0.00 0.00 68 1004.4
20260505162532 80 220 7.0 18.0 0.00 0.00 0.00 68 1004.3
20260505162037 79 251 10.0 19.0 0.00 0.00 0.00 67 1004.4
20260505161543 79 205 9.0 19.0 0.00 0.00 0.00 69 1004.3
20260505161026 79 173 13.0 18.0 0.00 0.00 0.00 69 1004.3
20260505160530 79 202 10.0 18.0 0.00 0.00 0.00 70 1004.2
20260505153049 77 222 8.0 19.0 0.00 0.00 0.00 73 1004.2
20260505152555 76 228 3.0 19.0 0.00 0.00 0.00 73 1004.1
20260505152041 76 212 13.0 19.0 0.00 0.00 0.00 73 1004.1
20260505151530 76 216 12.0 18.0 0.00 0.00 0.00 73 1004.1
20260505151033 76 197 7.0 14.0 0.00 0.00 0.00 73 1004.1
20260505150545 76 206 2.0 15.0 0.00 0.00 0.00 74 1004.1
20260505140520 74 225 4.0 14.0 0.00 0.00 0.00 78 1003.8
20260505125025 71 227 9.0 16.0 0.00 0.00 0.00 81 1003.8
20260505124535 71 214 11.0 16.0 0.00 0.00 0.00 81 1003.8
20260505124025 71 208 4.0 15.0 0.00 0.00 0.00 82 1003.6
20260505123601 71 198 7.0 16.0 0.00 0.00 0.00 82 1003.6
20260505123047 71 200 8.0 16.0 0.00 0.00 0.00 82 1003.5
20260505122553 71 216 0.0 16.0 0.00 0.00 0.00 82 1003.5
20260505122031 71 216 10.0 16.0 0.00 0.00 0.00 82 1003.3
20260505121534 70 202 4.0 14.0 0.00 0.00 0.00 82 1003.3
20260505121038 70 227 6.0 14.0 0.00 0.00 0.00 82 1003.3
20260505120543 70 210 0.0 14.0 0.00 0.00 0.00 82 1003.2
20260505120025 70 212 7.0 18.0 0.00 0.00 0.00 82 1003.1
20260505115601 70 214 8.0 18.0 0.00 0.00 0.00 82 1003.2
20260505115032 70 173 12.0 18.0 0.00 0.00 0.00 82 1003.2
20260505114532 70 216 6.0 17.0 0.00 0.00 0.00 82 1003.1
20260505114040 70 231 12.0 18.0 0.00 0.00 0.00 82 1003.1
20260505113527 70 220 8.0 18.0 0.00 0.00 0.00 82 1003.0
20260505113031 70 221 7.0 16.0 0.00 0.00 0.00 82 1002.9
20260505112523 70 207 9.0 17.0 0.00 0.00 0.00 82 1002.9
20260505112031 70 198 6.0 17.0 0.00 0.00 0.00 82 1002.9
20260505111540 70 224 1.0 14.0 0.00 0.00 0.00 82 1002.9
20260505111028 70 203 6.0 18.0 0.00 0.00 0.00 82 1002.8
20260505110534 70 200 8.0 18.0 0.00 0.00 0.00 82 1002.8
20260505102101 71 204 4.0 21.0 0.00 0.00 0.00 81 1002.7
20260505101528 71 220 12.0 21.0 0.00 0.00 0.00 81 1002.9
20260505101035 71 205 6.0 20.0 0.00 0.00 0.00 81 1002.8
20260505100524 71 214 11.0 20.0 0.00 0.00 0.00 81 1002.8
20260505100030 71 200 12.0 20.0 0.00 0.00 0.00 81 1002.8
20260505095550 71 189 7.0 18.0 0.00 0.00 0.00 81 1002.8
20260505095032 71 203 4.0 23.0 0.00 0.00 0.00 80 1003.0
20260505094539 71 190 7.0 19.0 0.00 0.00 0.00 80 1002.9
20260505094026 71 212 11.0 18.0 0.00 0.00 0.00 80 1002.7
20260505093531 71 211 10.0 18.0 0.00 0.00 0.00 80 1002.8
20260505093035 71 206 6.0 23.0 0.00 0.00 0.00 80 1002.9
20260505092542 71 232 9.0 23.0 0.00 0.00 0.00 80 1003.0
20260505092028 71 195 8.0 17.0 0.00 0.00 0.00 79 1003.0
20260505091551 72 205 6.0 19.0 0.00 0.00 0.00 79 1003.0
20260505091040 72 202 10.0 21.0 0.00 0.00 0.00 79 1003.1
20260505090549 72 202 6.0 21.0 0.00 0.00 0.00 78 1003.2
20260505090054 72 206 9.0 22.0 0.00 0.00 0.00 78 1003.3
20260505085541 72 188 12.0 22.0 0.00 0.00 0.00 78 1003.4
20260505085039 72 193 9.0 20.0 0.00 0.00 0.00 78 1003.4
20260505084525 72 204 10.0 21.0 0.00 0.00 0.00 77 1003.4
20260505084100 72 221 12.0 21.0 0.00 0.00 0.00 77 1003.4
20260505083529 72 200 8.0 16.0 0.00 0.00 0.00 77 1003.5
20260505083034 72 204 8.0 16.0 0.00 0.00 0.00 77 1003.5
20260505082602 73 210 11.0 18.0 0.00 0.00 0.00 76 1003.6
20260505082027 73 217 5.0 18.0 0.00 0.00 0.00 76 1003.5
20260505081547 73 184 5.0 18.0 0.00 0.00 0.00 75 1003.3
20260505081032 73 216 9.0 20.0 0.00 0.00 0.00 75 1003.3
20260505080543 73 202 11.0 20.0 0.00 0.00 0.00 74 1003.4
20260505080048 73 208 9.0 19.0 0.00 0.00 0.00 74 1003.4
20260505075531 73 196 7.0 19.0 0.00 0.00 0.00 74 1003.3
20260505075053 73 183 11.0 18.0 0.00 0.00 0.00 73 1003.4
20260505074522 73 214 0.0 19.0 0.00 0.00 0.00 73 1003.5
20260505074100 74 204 10.0 19.0 0.00 0.00 0.00 73 1003.5
20260505073526 74 229 10.0 23.0 0.00 0.00 0.00 72 1003.6
20260505073028 74 206 8.0 23.0 0.00 0.00 0.00 72 1003.8
20260505072557 74 190 10.0 20.0 0.00 0.00 0.00 72 1003.8
20260505072023 74 166 9.0 20.0 0.00 0.00 0.00 71 1004.0
20260505071542 74 182 14.0 21.0 0.00 0.00 0.00 71 1004.0
20260505071030 74 202 11.0 21.0 0.00 0.00 0.00 71 1004.1
20260505070537 74 218 5.0 19.0 0.00 0.00 0.00 71 1004.2
20260505070042 74 195 10.0 19.0 0.00 0.00 0.00 70 1004.2
20260505065527 74 216 11.0 19.0 0.00 0.00 0.00 70 1004.3
20260505065020 74 232 11.0 20.0 0.00 0.00 0.00 70 1004.4
20260505064546 74 197 13.0 21.0 0.00 0.00 0.00 70 1004.4
20260505064050 74 208 11.0 21.0 0.00 0.00 0.00 69 1004.5
20260505063541 75 219 2.0 18.0 0.00 0.00 0.00 69 1004.5
20260505063028 75 199 9.0 19.0 0.00 0.00 0.00 69 1004.5
20260505062531 75 189 13.0 21.0 0.00 0.00 0.00 69 1004.6
20260505062022 75 212 9.0 21.0 0.00 0.00 0.00 68 1004.6
20260505061528 75 204 11.0 20.0 0.00 0.00 0.00 68 1004.5
20260505061055 75 181 10.0 20.0 0.00 0.00 0.00 68 1004.6
20260505060537 75 187 14.0 19.0 0.00 0.00 0.00 68 1004.5
20260505060043 75 199 7.0 16.0 0.00 0.00 0.00 67 1004.7
20260505055542 75 214 6.0 18.0 0.00 0.00 0.00 67 1004.7
20260505055026 76 168 10.0 20.0 0.00 0.00 0.00 67 1004.7
20260505054536 76 201 10.0 21.0 0.00 0.00 0.00 66 1004.7
20260505054023 76 164 9.0 21.0 0.00 0.00 0.00 66 1004.6
20260505053527 76 196 7.0 20.0 0.00 0.00 0.00 66 1004.6
20260505053032 76 195 11.0 17.0 0.00 0.00 0.00 66 1004.6
20260505052536 76 191 10.0 17.0 0.00 0.00 0.00 66 1004.6
20260505052026 76 205 8.0 17.0 0.00 0.00 0.00 66 1004.6
20260505051539 76 158 4.0 15.0 0.00 0.00 0.00 66 1004.7
20260505051029 76 179 9.0 18.0 0.00 0.00 0.00 66 1004.6
20260505050539 76 171 11.0 18.0 0.00 0.00 0.00 66 1004.6
20260505041527 76 191 8.0 16.0 0.00 0.00 0.00 67 1005.0
20260505041033 76 170 6.0 15.0 0.00 0.00 0.00 67 1005.1
20260505040541 76 185 7.0 17.0 0.00 0.00 0.00 67 1005.0
20260505040056 76 197 10.0 17.0 0.00 0.00 0.00 66 1005.0
20260505035543 76 197 5.0 20.0 0.00 0.00 0.00 67 1005.2
20260505035026 76 213 8.0 20.0 0.00 0.00 0.00 67 1005.1
20260505034530 76 177 9.0 17.0 0.00 0.00 0.00 67 1005.0
20260505034033 76 211 1.0 18.0 0.00 0.00 0.00 67 1005.0
20260505033525 76 195 3.0 18.0 0.00 0.00 0.00 67 1005.0
20260505033031 76 153 8.0 18.0 0.00 0.00 0.00 66 1005.1
20260505032537 76 153 7.0 17.0 0.00 0.00 0.00 66 1005.1
20260505032046 76 193 6.0 17.0 0.00 0.00 0.00 66 1005.0
20260505031534 76 148 8.0 17.0 0.00 0.00 0.00 66 1005.0
20260505031021 76 174 7.0 15.0 0.00 0.00 0.00 66 1005.0
20260505030532 76 153 5.0 15.0 0.00 0.00 0.00 66 1005.0
20260505030055 76 158 10.0 15.0 0.00 0.00 0.00 66 1005.2
20260505025541 76 199 5.0 18.0 0.00 0.00 0.00 65 1005.2
20260505025021 76 166 7.0 18.0 0.00 0.00 0.00 65 1005.3
20260505024555 76 128 8.0 16.0 0.00 0.00 0.00 65 1005.2
20260505024021 76 223 7.0 17.0 0.00 0.00 0.00 65 1005.3
20260505023531 76 148 7.0 17.0 0.00 0.00 0.00 65 1005.1
20260505023020 76 139 5.0 13.0 0.00 0.00 0.00 65 1005.0
20260505022525 76 171 6.0 13.0 0.00 0.00 0.00 65 1005.1
20260505022032 76 139 7.0 13.0 0.00 0.00 0.00 65 1005.2
20260505021536 76 124 6.0 15.0 0.00 0.00 0.00 65 1005.1
20260505021026 76 195 4.0 17.0 0.00 0.00 0.00 65 1004.9
20260505020539 76 189 7.0 17.0 0.00 0.00 0.00 65 1005.0
20260505020028 76 199 8.0 14.0 0.00 0.00 0.00 65 1005.0
20260505015540 76 184 7.0 17.0 0.00 0.00 0.00 65 1005.0
20260505015026 76 167 2.0 17.0 0.00 0.00 0.00 65 1005.2
20260505014529 76 187 4.0 15.0 0.00 0.00 0.00 65 1005.0
20260505014039 77 214 5.0 15.0 0.00 0.00 0.00 65 1005.0
20260505013527 77 209 1.0 15.0 0.00 0.00 0.00 65 1005.2
20260505013058 77 185 5.0 16.0 0.00 0.00 0.00 64 1005.1
20260505012544 77 185 10.0 17.0 0.00 0.00 0.00 64 1005.1
20260505012033 77 189 6.0 17.0 0.00 0.00 0.00 64 1005.0
20260505011536 77 135 3.0 15.0 0.00 0.00 0.00 63 1005.0
20260505011024 77 182 5.0 15.0 0.00 0.00 0.00 63 1005.1
20260505010533 77 176 3.0 17.0 0.00 0.00 0.00 63 1005.1
20260505010039 78 170 9.0 17.0 0.00 0.00 0.00 62 1005.1
20260505005528 78 180 7.0 15.0 0.00 0.00 0.00 62 1005.1
20260505005031 78 196 6.0 15.0 0.00 0.00 0.00 62 1005.1
20260505004533 78 186 5.0 17.0 0.00 0.00 0.00 61 1005.2
20260505004036 78 197 11.0 17.0 0.00 0.00 0.00 61 1005.1